Marshfield, WI

5:20 AM CST on November 12, 2019 (GMT -0600)
Marshfield Municipal

Weather History for KMFI - September, 2019

Change the Weather History Date:

Tuesday, September 24, 2019

  Actual Average Record
Temperature  
Mean Temperature 64 °F -  
Max Temperature 80 °F 65 °F 88 °F (2017)
Min Temperature 48 °F 40 °F 24 °F (1976)
Degree Days  
Heating Degree Days 2    
Growing Degree Days 14 (Base 50)    
Moisture  
Dew Point 58 °F    
Average Humidity 81    
Maximum Humidity 93    
Minimum Humidity 60    
Precipitation  
Precipitation 0.52 in - - ()
Sea Level Pressure  
Sea Level Pressure 29.74 in    
Wind  
Wind Speed 6 mph (SSW)    
Max Wind Speed 26 mph    
Max Gust Speed 40 mph    
Visibility 8 miles    
Events Rain , Thunderstorm    
Averages and records for this station are not official NWS values.
T = Trace of Precipitation, MM = Missing Value Source: NWS Daily Summary

Daily Weather History Graph

Daily Weather History Graph

Search for Another Location

Airport or City:

Astronomy

Sep. 24, 2019 Rise Set
Actual Time 6:50 AM CDT 6:54 PM CDT
Civil Twilight 6:20 AM CDT 7:23 PM CDT
Nautical Twilight 5:46 AM CDT 7:57 PM CDT
Astronomical Twilight 5:11 AM CDT 8:32 PM CDT
Moon 1:20 AM CDT (9/24) 4:54 PM CDT (9/24)
Length of Visible Light 13h 02m
Length of Day
12h 04m
Waning Crescent, 23% of the Moon is Illuminated
Sep 24
Waning Crescent
Sep 28
New
Oct 5
First Quarter
Oct 13
Full
Oct 21
Last Quarter

Hourly Weather History & Observations

Time (CDT) Temp. Dew Point Humidity Pressure Visibility Wind Dir Wind Speed Gust Speed Precip Events Conditions
12:54 AM 52.0 °F 48.9 °F 89% 29.95 in 10.0 mi Calm Calm - N/A   Clear
1:54 AM 51.1 °F 48.0 °F 89% 29.95 in 10.0 mi Calm Calm - N/A   Clear
2:54 AM 50.0 °F 48.0 °F 93% 29.94 in 10.0 mi Calm Calm - N/A   Clear
3:54 AM 50.0 °F 48.0 °F 93% 29.93 in 7.0 mi Calm Calm - N/A   Clear
4:54 AM 50.0 °F 46.9 °F 89% 29.91 in 10.0 mi South 4.6 mph - N/A   Clear
5:54 AM 48.9 °F 46.9 °F 93% 29.91 in 7.0 mi Calm Calm - N/A   Clear
6:54 AM 50.0 °F 48.0 °F 93% 29.89 in 10.0 mi Calm Calm - N/A   Clear
7:54 AM 54.0 °F 51.1 °F 90% 29.88 in 10.0 mi South 4.6 mph - N/A   Clear
8:54 AM 57.9 °F 55.0 °F 90% 29.86 in 10.0 mi SSE 5.8 mph - N/A   Clear
9:54 AM 63.0 °F 57.9 °F 84% 29.85 in 10.0 mi SSW 8.1 mph - N/A   Clear
10:54 AM 69.1 °F 60.1 °F 73% 29.81 in 10.0 mi SSW 10.4 mph - N/A   Partly Cloudy
11:54 AM 72.0 °F 60.1 °F 66% 29.79 in 10.0 mi SW 10.4 mph - N/A   Clear
12:54 PM 75.0 °F 61.0 °F 62% 29.75 in 10.0 mi SSW 12.7 mph - N/A   Clear
1:54 PM 77.0 °F 62.1 °F 60% 29.71 in 10.0 mi South 12.7 mph - N/A   Clear
2:54 PM 79.0 °F 64.0 °F 60% 29.69 in 10.0 mi SSW 13.8 mph 23.0 mph N/A   Clear
3:54 PM 77.0 °F 64.0 °F 64% 29.68 in 10.0 mi South 11.5 mph 20.7 mph N/A   Clear
4:54 PM 75.9 °F 64.9 °F 69% 29.67 in 10.0 mi SSW 9.2 mph - N/A   Scattered Clouds
5:54 PM 75.0 °F 64.9 °F 71% 29.65 in 10.0 mi SSW 11.5 mph - N/A   Overcast
6:54 PM 73.0 °F 64.0 °F 73% 29.62 in 10.0 mi South 11.5 mph - N/A   Clear
7:54 PM 70.0 °F 64.0 °F 81% 29.55 in 10.0 mi South 12.7 mph - N/A   Clear
8:54 PM 72.0 °F 62.1 °F 71% 29.58 in 10.0 mi SSW 11.5 mph 25.3 mph N/A   Partly Cloudy
9:27 PM 71.1 °F 62.1 °F 73% 29.60 in 10.0 mi SSW 15.0 mph - 0.00 in Rain , Thunderstorm Light Thunderstorms and Rain
9:54 PM 69.1 °F 64.0 °F 84% 29.66 in 3.0 mi West 13.8 mph - 0.10 in Rain , Thunderstorm Thunderstorms and Rain
9:56 PM 68.0 °F 64.9 °F 90% 29.69 in 1.8 mi West 26.5 mph 40.3 mph 0.07 in Rain , Thunderstorm Heavy Thunderstorms and Rain
10:16 PM 64.0 °F 61.0 °F 90% 29.66 in 1.0 mi West 16.1 mph 33.4 mph 0.34 in Rain , Thunderstorm Heavy Thunderstorms and Rain
10:21 PM 64.0 °F 61.0 °F 90% 29.65 in 1.2 mi West 16.1 mph 33.4 mph 0.37 in Rain , Thunderstorm Heavy Rain
10:26 PM 64.0 °F 61.0 °F 90% 29.64 in 3.0 mi West 11.5 mph 26.5 mph 0.38 in Rain , Thunderstorm Heavy Rain
10:39 PM 64.0 °F 60.1 °F 87% 29.62 in 6.0 mi WSW 9.2 mph - 0.41 in Rain Light Rain
10:54 PM 63.0 °F 60.1 °F 90% 29.60 in 10.0 mi Calm Calm - 0.41 in Rain Light Rain
11:54 PM 64.9 °F 61.0 °F 87% 29.56 in 10.0 mi SSW 10.4 mph - 0.01 in Rain Light Rain